Lid_Strength_Index
14 14 17 15 14 14 16 16 17 17 15 15 15 14 13 13 15 15 13 13 12 12 9 10 9 10 10 10 10 9 10 10 10 11 11 11 11 11 11 11 11 12 12 11
15 17 14 14 14 14 16 17 18 17 16 15 16 17 17 16 15 14 13 12 12 12 13 12 11 11 10 10 10 10 10 10 10 10 10 10 11 11 11 11 11 12 12 11
16 16 14 14 15 16 16 17 17 17 17 16 18 18 18 17 16 15 14 13 13 13 13 13 13 11 11 10 10 10 10 10 10 10 11 11 12 12 12 12 12 12 12 12
16 15 16 17 17 15 18 15 16 17 18 20 17 21 17 18 17 17 15 14 14 15 15 15 15 14 12 11 10 10 10 11 10 10 11 11 12 13 12 12 12 12 12 11
17 17 17 17 16 14 16 15 16 16 17 18 19 21 18 20 19 17 15 16 16 16 16 16 15 14 12 12 12 11 11 11 11 11 11 11 12 12 13 13 13 12 12 10
15 14 15 16 16 14 14 16 17 18 18 22 20 20 19 19 18 16 16 16 16 16 15 14 13 13 13 13 12 12 12 11 11 11 11 12 12 14 14 14 14 13 13 11
15 16 16 15 16 15 16 18 21 23 23 24 22 21 18 17 17 17 16 17 16 15 15 14 14 14 14 14 14 13 12 13 12 12 12 12 12 13 13 14 14 14 14 13
18 20 16 16 16 16 17 16 20 25 24 22 21 23 19 17 17 17 17 17 17 17 16 15 14 14 14 14 14 14 14 14 13 13 13 13 13 13 13 13 14 14 13 13
18 18 17 16 16 15 17 19 15 18 21 21 20 20 17 17 17 18 18 17 17 17 17 17 16 15 14 14 14 14 14 14 14 13 13 14 14 14 14 14 13 13 13 13
15 19 17 17 16 16 16 15 17 17 22 23 20 21 19 18 18 18 19 18 18 18 17 17 17 17 16 14 14 14 14 14 14 14 14 13 14 13 14 13 14 13 13 13
14 16 19 17 19 17 18 17 16 16 17 21 23 22 18 17 17 18 18 18 17 17 17 17 17 17 16 15 14 14 14 14 14 14 14 14 14 14 14 14 14 14 13 13
12 15 18 18 18 18 19 16 15 18 20 19 20 20 18 18 17 17 18 17 17 17 17 17 17 17 16 16 16 15 14 14 14 14 14 14 14 14 14 14 14 14 14 13
12 15 20 19 19 18 20 18 15 14 16 19 20 20 17 18 17 16 17 17 16 16 17 17 17 17 17 17 16 16 15 15 14 14 14 14 14 14 14 14 14 14 14 13
9 14 18 20 18 18 19 18 17 16 19 20 19 18 17 17 17 16 16 15 16 16 17 17 18 18 17 17 17 17 16 15 15 15 15 15 15 14 14 14 14 14 14 15
13 17 17 17 16 16 16 17 17 18 18 20 18 17 15 16 15 15 14 15 15 16 17 18 18 18 18 18 18 18 17 16 15 15 15 15 14 14 14 14 14 14 15 15
13 17 16 21 16 15 17 17 16 16 17 17 17 18 13 14 13 14 14 14 15 16 17 17 18 18 18 18 18 17 18 17 15 15 15 15 15 14 15 15 15 15 15 15
15 16 16 22 16 16 23 19 16 16 16 16 18 16 14 13 13 13 13 14 15 16 17 18 19 19 19 19 19 19 19 17 16 16 15 15 14 14 14 14 15 15 15 15
19 17 17 21 19 25 18 15 16 17 17 17 17 17 16 15 12 17 17 16 17 18 19 20 20 21 20 20 20 19 17 16 16 16 15 15 15 15 15 15 15 15 15 16
11 14 22 23 22 19 16 16 18 18 18 16 17 16 16 15 15 18 17 18 19 19 20 20 21 21 21 21 21 19 18 17 16 16 16 16 15 16 16 16 17 17 17 17
12 12 16 26 25 28 20 16 14 15 21 15 15 16 17 15 16 18 18 19 19 20 20 21 21 21 22 22 21 20 21 20 21 19 18 17 17 17 18 17 18 18 17 17
27 22 18 17 19 21 15 14 13 18 20 14 14 15 15 17 18 17 17 18 19 20 20 21 21 22 23 22 21 22 22 22 22 21 20 19 19 19 18 18 17 17 16 16
22 25 25 16 18 20 13 13 17 15 13 13 13 14 14 14 14 15 17 18 19 21 21 21 22 23 23 23 22 23 23 22 22 21 19 19 20 18 17 17 16 15 15 15
21 16 20 19 15 12 11 12 11 11 13 12 12 12 13 13 13 14 14 18 20 21 21 22 22 23 23 23 23 23 23 22 22 21 20 19 18 18 16 16 16 16 15 16
19 18 18 17 18 14 13 11 11 10 11 10 10 11 13 14 13 14 15 16 17 20 21 22 22 23 23 23 23 23 22 22 22 22 21 19 19 18 17 16 16 16 16 17
15 15 20 19 15 12 13 14 15 10 12 13 13 13 14 15 15 15 16 16 17 19 21 22 22 23 23 23 23 22 22 22 22 22 22 20 20 20 20 19 18 18 18 17
14 16 16 17 16 14 14 17 16 16 17 17 17 16 15 16 17 17 17 17 19 20 21 22 23 23 23 23 23 22 21 21 22 22 21 21 20 19 19 18 17 15 15 15